GFSGBSN_850_rhum_162.txt.gz
RH
34 39 26 36 47 54 39 31 32 34 35 36 37 37 38 38 39 40 41 43 46 47 50 53 57 57 58 63 60 69 78 78 70 62 66 77 90 80 82 74 72 85 68 64 62 62 60
40 28 23 21 20 27 37 33 32 33 33 32 34 35 34 33 32 33 35 36 43 49 54 57 57 63 73 83 68 70 68 64 68 71 76 79 77 84 90 75 74 68 72 71 63 61 64
75 50 25 19 18 21 24 31 33 32 32 32 32 32 29 27 28 31 37 42 46 50 54 58 61 74 81 59 68 67 70 70 71 76 84 73 82 87 83 79 65 74 88 75 66 68 68
67 47 29 20 20 18 20 23 27 31 34 35 30 27 24 23 24 32 44 46 48 51 55 57 63 78 69 62 67 71 75 75 75 78 86 91 99 98 98 80 79 83 86 94 60 61 61
58 58 41 21 21 20 21 19 21 23 27 26 25 24 22 21 24 40 45 42 46 52 54 60 70 86 74 66 70 72 72 73 76 78 82 90 100 94 84 93 99 91 95 97 81 57 63
55 52 48 33 21 22 21 22 21 22 22 24 25 21 19 21 32 47 44 45 63 65 66 75 86 95 68 65 68 71 65 80 81 88 80 93 96 91 94 96 96 94 97 85 86 54 66
34 41 52 48 33 28 29 36 33 31 25 21 17 18 19 24 44 48 48 52 57 69 78 62 72 71 69 64 67 61 71 84 81 93 86 91 98 98 87 86 84 99 100 97 77 58 66
28 30 33 42 64 56 55 54 69 39 31 23 18 16 19 30 51 53 57 59 60 65 76 54 56 68 69 68 73 64 73 80 83 88 82 94 96 76 76 80 88 91 99 93 72 58 62
25 19 33 36 60 87 73 57 50 42 40 29 23 18 22 38 54 59 68 64 60 65 89 64 67 68 67 71 73 67 72 80 92 92 80 98 78 75 73 86 93 90 92 85 82 62 68
65 32 22 33 36 66 74 58 47 42 42 31 24 21 25 49 62 63 77 68 60 64 90 67 64 68 67 72 84 62 66 74 90 91 87 95 80 92 97 100 98 98 75 86 87 93 93
91 73 40 35 30 64 51 54 49 45 44 32 26 24 30 54 58 72 69 63 63 89 63 54 70 70 66 73 61 55 63 84 95 82 90 85 89 93 100 96 97 96 74 97 97 98 98
99 89 77 50 70 67 52 46 54 52 46 37 30 29 38 59 59 66 66 63 79 79 57 70 69 72 70 75 70 56 70 80 78 85 80 87 87 94 95 83 79 92 98 100 100 99 97
100 99 87 77 81 85 68 46 61 55 52 44 31 36 45 65 73 69 63 82 86 73 50 62 71 69 72 74 64 58 71 88 90 97 86 78 84 81 85 92 83 89 100 97 97 98 93
88 100 98 91 88 88 86 61 68 60 55 47 33 38 44 66 71 67 74 78 72 58 69 52 65 70 78 63 65 58 65 80 70 80 97 89 87 88 85 88 75 90 90 98 96 96 80
100 96 100 99 100 100 84 86 80 72 57 50 38 40 52 73 75 71 83 92 66 76 55 58 66 74 74 66 68 64 69 70 56 76 74 92 90 58 75 65 52 58 88 80 86 80 94
91 99 100 100 100 100 100 86 97 91 60 50 48 59 71 82 78 84 88 77 77 61 52 60 78 67 64 58 74 73 61 50 52 51 50 63 93 60 53 51 51 54 58 83 94 96 92
86 94 99 99 99 99 99 99 99 99 67 53 74 81 92 97 80 92 94 86 73 52 48 65 71 70 65 64 60 61 58 48 52 55 57 60 65 69 56 56 57 56 72 78 85 100 97
86 95 95 95 99 100 98 98 99 100 81 59 89 97 97 100 98 94 98 82 54 51 53 58 61 66 69 64 65 60 58 51 53 55 66 56 62 81 62 52 48 52 55 67 90 96 98
58 67 95 99 100 100 99 97 98 100 80 68 98 97 100 99 99 97 86 66 55 57 62 65 68 65 61 60 69 61 56 46 54 55 59 56 69 88 70 58 51 54 51 44 75 91 92
67 58 59 96 95 100 100 97 99 100 79 70 90 98 100 100 98 98 85 64 64 54 56 57 59 58 60 65 62 66 58 49 56 57 58 58 72 78 89 70 64 72 58 49 59 90 92
91 87 74 73 96 98 100 97 98 100 93 84 91 90 88 97 94 96 77 58 57 60 60 56 59 62 61 69 60 63 56 54 50 58 58 59 78 69 68 67 67 68 61 56 50 58 65
98 95 80 81 95 96 99 98 97 99 99 98 74 75 89 81 76 97 86 78 66 57 63 64 67 54 57 73 60 62 58 59 62 58 62 62 75 71 79 58 54 59 56 52 53 47 61
98 100 89 92 90 95 100 99 96 100 100 98 65 76 58 59 72 86 80 75 59 52 43 44 57 60 54 53 46 50 55 56 60 61 65 65 73 81 83 66 59 54 50 51 44 41 43
99 98 100 99 92 93 100 100 99 94 98 83 69 76 63 67 64 60 47 62 57 50 41 45 46 51 47 48 45 49 54 56 65 73 62 67 66 82 88 63 68 38 31 38 44 36 38
91 89 97 94 97 94 97 99 100 92 97 94 86 70 59 73 58 52 50 45 43 48 49 48 49 48 51 47 59 46 46 51 54 68 69 64 62 74 79 75 54 26 27 35 40 37 27
73 88 89 98 100 94 83 99 98 99 92 97 98 77 68 65 62 45 43 45 59 63 63 58 60 58 54 64 58 45 42 34 32 53 54 56 58 68 71 65 56 32 27 27 31 40 34
90 79 88 92 100 100 100 100 100 99 100 94 98 97 74 64 50 50 48 50 44 57 65 66 62 59 56 73 61 55 44 33 33 40 61 76 76 80 78 77 63 42 30 29 29 33 37
93 80 80 79 96 99 100 100 98 100 100 94 95 94 90 68 59 56 48 47 50 50 59 59 58 65 74 70 66 56 50 38 39 36 58 66 82 84 78 74 71 32 25 24 29 35 42
94 88 96 74 99 100 100 100 100 100 100 98 95 97 93 82 71 63 59 54 50 46 46 57 51 62 53 68 73 60 47 49 40 43 42 50 60 62 66 62 42 26 28 27 30 31 38

GFSGBSN_850_rhum_165.txt.gz
RH
54 50 43 31 23 26 31 28 27 29 31 32 33 33 34 32 32 32 32 34 36 43 47 50 53 52 50 56 54 63 72 68 64 62 63 71 75 86 88 80 77 85 73 68 65 64 67
64 59 53 36 29 22 20 24 26 26 28 29 30 30 30 27 26 27 30 36 41 44 47 50 56 58 59 66 57 63 63 66 69 72 72 77 78 81 92 92 83 71 71 72 64 68 66
67 68 51 34 25 26 25 22 22 25 25 28 30 29 28 26 24 23 30 43 45 46 46 52 57 76 64 53 59 62 67 70 72 76 79 80 93 92 87 89 77 76 87 77 71 68 74
71 58 50 39 21 19 23 22 19 21 24 25 25 25 24 22 21 24 40 43 42 45 49 50 58 72 62 62 61 65 72 72 74 77 83 87 98 100 99 84 79 83 88 88 62 62 66
97 64 51 44 29 19 20 20 21 19 19 20 21 21 22 20 20 31 45 43 44 48 52 54 66 79 67 60 61 66 73 71 73 75 80 89 94 91 89 95 96 93 95 92 82 61 62
25 37 51 49 40 26 21 20 21 22 23 22 19 18 18 19 23 43 44 46 58 67 62 70 82 89 58 62 66 69 67 72 82 73 82 92 97 96 98 99 96 88 99 88 88 63 67
22 15 20 40 45 41 32 34 36 39 32 28 23 17 16 20 32 49 47 50 55 64 76 60 64 64 57 64 67 64 64 74 82 89 91 87 97 92 80 83 80 77 97 93 84 65 78
80 40 18 22 36 70 69 64 59 62 40 35 27 19 17 23 48 53 52 54 55 62 69 53 53 62 55 66 71 66 69 78 85 88 76 93 97 76 77 85 92 94 96 91 72 69 71
96 88 66 22 28 51 98 97 75 67 43 41 33 22 19 28 53 60 64 62 58 62 79 56 63 67 64 70 72 64 66 78 90 93 81 92 73 76 81 88 98 97 94 84 84 68 65
99 98 94 79 28 24 72 99 73 62 46 43 36 25 22 44 54 66 74 68 58 66 84 61 62 65 67 72 79 59 65 75 89 95 87 94 72 89 91 98 99 98 71 82 81 92 94
99 100 100 96 82 38 33 76 63 60 51 48 38 28 24 51 74 70 72 64 62 84 54 48 67 68 72 72 67 58 65 81 90 88 93 82 85 89 96 97 89 97 73 95 97 98 98
100 96 96 100 93 83 66 62 54 59 72 55 43 31 28 53 65 69 68 63 78 74 46 64 69 74 73 78 78 65 73 83 86 89 90 91 82 89 82 83 81 76 89 97 100 99 96
93 92 98 98 99 92 94 74 52 67 82 60 50 36 33 58 75 76 65 81 79 72 47 59 69 73 72 76 70 65 77 95 90 96 86 80 87 78 83 89 77 86 99 97 97 97 90
85 96 99 97 100 97 98 96 71 72 94 79 54 39 41 59 84 73 72 71 60 46 68 48 65 70 77 67 70 60 66 80 71 79 97 89 84 85 85 91 76 85 92 98 96 96 93
80 82 90 98 92 100 100 99 97 76 99 86 58 44 44 70 77 74 82 89 58 56 56 58 62 77 73 68 71 66 73 74 66 80 81 89 91 62 85 76 68 60 92 75 99 83 97
38 67 86 100 100 99 100 100 100 98 100 88 57 65 64 74 80 83 89 81 59 61 55 60 69 68 75 60 72 74 66 55 54 64 57 68 93 65 58 58 61 59 58 94 96 97 96
56 45 56 80 89 99 100 100 100 99 100 95 75 95 91 88 86 95 97 89 69 58 50 66 73 74 72 66 70 65 62 50 53 54 59 65 81 72 55 57 62 62 70 78 89 98 97
63 53 43 57 74 99 99 100 100 97 99 98 100 99 96 99 96 97 100 82 65 54 54 59 64 70 71 63 70 66 66 54 49 55 66 57 88 91 68 52 52 54 60 66 98 91 97
62 56 56 45 62 96 94 98 100 98 99 98 99 98 98 100 98 98 93 83 67 58 63 66 70 70 67 70 74 68 60 46 55 56 62 56 85 96 70 55 50 57 56 54 76 91 93
77 74 62 48 43 63 98 98 100 99 99 94 97 95 100 100 98 84 86 82 71 57 58 60 64 64 70 72 68 70 63 51 55 60 57 58 76 94 96 78 66 73 66 59 62 92 77
91 88 76 64 55 51 76 100 99 100 99 96 100 94 83 95 95 83 88 64 68 59 63 61 62 70 72 73 66 75 62 56 49 60 64 65 83 77 77 72 73 73 74 69 62 60 77
98 95 94 95 80 62 68 99 99 100 100 100 98 92 98 91 83 85 85 83 68 57 68 70 73 57 73 75 65 60 57 60 62 59 65 66 80 73 83 68 58 68 60 62 61 54 51
65 84 90 96 99 70 74 93 100 100 100 99 98 84 81 85 99 93 94 85 72 60 47 46 62 65 68 66 54 50 50 53 58 63 67 71 78 84 88 71 67 52 39 51 49 46 47
74 71 95 98 100 99 88 96 100 100 99 98 91 81 64 73 85 87 71 70 69 60 46 45 50 57 45 48 47 51 56 59 64 72 69 72 71 84 91 70 72 38 39 40 46 46 38
85 77 71 97 94 99 100 93 100 100 100 100 84 75 65 76 62 56 54 56 51 52 53 48 48 47 48 50 57 46 42 48 57 68 80 74 68 79 84 84 60 28 27 35 44 44 29
88 86 82 95 97 98 84 89 86 100 100 96 88 80 68 66 68 42 54 49 60 64 60 57 57 59 55 65 57 41 41 32 30 55 64 69 66 73 77 75 67 36 30 28 32 44 37
94 90 82 94 93 100 81 80 97 98 100 100 92 90 80 68 52 54 51 54 46 58 65 67 63 60 57 73 59 56 47 34 39 36 70 79 80 86 85 84 67 46 37 30 34 37 38
61 85 88 92 98 99 98 89 98 92 99 100 94 89 95 76 62 55 50 49 52 50 63 63 59 66 75 69 66 63 52 42 42 36 56 66 85 88 84 81 73 36 24 22 26 31 40
36 37 62 89 100 93 94 99 100 100 100 100 100 91 95 92 75 65 58 51 49 46 44 57 50 62 55 68 76 66 56 54 44 46 45 51 58 62 69 64 43 33 24 24 28 30 32

GFSGBSN_850_rhum_168.txt.gz
RH
61 58 50 44 43 37 37 45 30 28 27 28 29 31 30 30 29 27 27 30 37 41 43 47 48 46 46 45 53 61 62 62 66 64 68 74 76 86 91 84 81 88 78 70 68 68 68
85 80 66 48 31 23 27 29 37 33 32 29 28 27 28 27 26 24 24 30 42 44 45 47 50 49 52 53 56 58 60 64 67 67 71 77 82 86 88 88 87 75 76 75 70 66 65
85 82 88 74 42 25 24 22 29 35 33 33 35 29 25 26 22 21 24 40 43 42 44 48 51 52 55 52 54 58 62 64 68 70 76 84 91 92 89 87 80 84 94 80 71 70 77
99 94 73 71 70 40 34 27 21 20 22 24 27 26 24 21 20 20 28 42 42 45 45 47 52 55 53 57 53 57 64 66 69 75 80 80 86 99 98 85 80 88 85 89 61 63 67
38 92 56 50 55 53 61 59 40 27 20 21 21 20 20 20 19 21 40 43 45 50 55 52 60 67 57 56 57 60 64 71 72 78 80 83 88 88 80 91 88 78 95 88 79 62 63
69 33 21 22 37 42 44 64 56 42 33 26 23 20 17 18 19 27 44 46 54 62 61 63 71 74 54 58 64 66 66 67 80 74 80 88 96 92 80 91 92 89 98 89 96 68 63
98 86 66 26 15 26 34 47 55 72 75 50 32 25 18 16 21 39 44 46 53 57 64 51 61 58 51 60 64 67 63 70 82 80 87 87 98 90 84 86 76 83 92 88 73 58 74
100 99 94 83 53 18 22 39 74 84 98 62 43 37 22 18 27 49 52 52 58 65 72 51 54 60 50 60 68 67 67 78 82 89 78 91 94 78 77 83 84 97 97 92 73 64 73
99 96 99 98 91 76 22 44 96 80 73 60 46 42 26 20 34 54 63 65 60 61 77 55 60 65 62 66 70 63 65 76 87 87 90 92 76 76 83 85 97 94 93 81 84 73 69
97 97 96 100 99 98 85 30 59 78 55 54 45 43 29 26 46 58 70 75 60 66 82 57 62 65 67 73 74 62 69 73 88 92 94 92 77 85 92 92 90 97 72 77 86 96 96
98 94 96 95 98 99 100 87 40 46 39 60 49 46 30 31 73 62 69 67 64 80 54 45 65 70 74 72 70 64 73 82 88 84 88 77 80 89 92 84 90 97 72 88 93 98 98
93 98 96 97 99 96 99 99 87 64 38 60 58 51 35 32 63 69 66 61 78 72 55 57 69 75 77 80 78 75 79 86 88 94 93 89 81 87 84 83 83 78 89 84 99 98 98
48 90 98 98 100 96 94 99 94 87 58 77 71 57 39 45 73 76 66 76 77 70 49 53 68 78 73 74 75 76 82 98 88 90 88 79 82 83 82 85 79 87 100 96 93 98 89
87 44 76 90 95 100 100 100 100 90 97 74 91 70 47 44 76 86 72 67 66 43 60 46 67 72 77 69 72 65 70 81 76 77 93 88 87 83 82 87 80 86 92 98 96 98 77
91 86 56 62 83 89 99 98 100 100 100 96 98 84 53 44 78 80 82 89 59 46 50 62 63 76 73 69 72 68 74 76 68 82 83 90 92 61 86 78 78 78 99 74 99 94 97
89 85 83 48 64 82 88 100 99 100 100 100 92 91 57 56 87 82 89 82 55 53 56 56 51 65 74 62 73 75 70 61 61 73 60 69 96 66 60 66 71 79 64 96 97 96 95
89 84 78 68 45 59 71 93 100 100 100 100 99 97 78 83 94 98 98 93 68 53 54 63 67 69 75 67 71 68 66 55 52 57 64 65 94 71 61 64 64 71 84 94 100 99 97
83 78 72 65 60 48 45 60 84 100 100 100 99 98 98 100 98 94 94 90 60 64 62 60 63 71 74 70 71 73 71 58 49 55 68 65 84 94 78 59 55 57 63 85 98 93 91
82 73 69 62 57 52 47 41 55 100 98 98 98 95 100 98 93 87 86 95 75 62 65 68 71 71 68 75 75 74 63 48 52 61 62 61 86 96 72 55 52 60 57 63 87 94 91
74 72 71 71 72 80 70 50 48 78 100 100 97 99 100 100 96 85 92 84 79 63 58 61 62 67 75 78 74 74 68 54 56 59 57 58 81 89 91 78 72 83 73 65 72 94 88
86 89 93 90 95 88 86 66 66 81 99 100 98 94 74 92 96 76 86 81 85 67 66 62 67 72 76 82 74 80 70 63 50 55 70 72 87 84 82 81 80 83 81 77 80 67 81
76 71 64 67 86 87 97 98 78 80 100 100 98 96 83 87 73 80 76 90 76 62 75 75 78 64 75 74 64 58 60 60 61 56 68 71 86 78 84 71 68 72 65 69 68 64 60
64 70 69 69 83 98 88 88 87 97 93 100 100 96 77 95 90 83 80 77 83 57 52 52 66 70 73 70 58 54 57 55 54 63 68 72 82 86 90 74 71 52 38 44 51 50 50
57 67 87 81 87 89 97 100 82 93 96 99 99 94 88 96 90 80 85 78 82 74 47 53 55 63 49 47 47 51 56 60 66 71 68 77 76 85 94 76 70 37 44 41 46 45 46
98 96 92 90 87 97 98 94 100 92 100 100 100 98 78 85 86 84 74 88 77 63 60 49 50 50 48 47 57 49 41 50 61 67 80 79 76 86 89 90 66 36 29 31 42 44 31
69 94 93 88 82 92 99 99 80 100 97 99 100 100 92 72 76 58 64 53 69 73 65 58 59 58 52 64 58 46 44 32 31 62 78 79 74 80 84 84 75 38 32 30 34 44 36
94 81 49 62 82 94 95 94 99 100 100 97 100 100 99 81 60 54 58 60 46 60 70 69 67 63 56 70 58 58 52 37 43 34 76 81 84 93 92 93 78 52 43 32 37 36 35
94 94 93 48 63 80 86 97 98 99 90 85 98 98 92 80 65 56 50 48 53 50 68 66 62 66 75 65 61 63 61 47 42 38 62 70 88 92 89 89 77 39 24 22 25 28 36
87 93 82 57 49 46 35 97 100 99 88 97 100 98 100 83 76 65 60 52 49 46 43 60 49 62 58 67 73 64 57 62 47 46 47 50 54 59 71 66 46 38 29 26 30 32 33

GFSGBSN_850_rhum_171.txt.gz
RH
62 73 96 72 48 32 32 26 28 27 29 33 35 34 29 27 26 25 23 22 29 39 41 41 41 41 41 45 55 56 58 64 64 60 64 73 79 84 91 87 84 87 77 71 69 70 70
58 69 71 72 65 44 37 34 35 30 27 30 30 34 29 26 25 22 20 22 35 41 41 42 44 43 48 50 53 56 60 62 63 62 70 77 84 89 92 82 86 78 82 80 76 72 71
48 79 69 59 57 48 39 45 44 32 34 30 34 27 25 23 20 19 18 24 39 40 42 43 47 48 53 51 53 57 59 62 62 66 71 74 82 89 85 91 84 87 93 72 69 71 74
39 87 70 41 38 46 40 24 50 64 43 31 30 30 24 21 19 18 18 32 38 40 43 48 50 56 53 53 53 57 60 63 65 69 72 77 81 84 86 80 71 80 83 92 64 69 65
92 59 62 24 19 26 36 47 32 29 58 70 52 33 25 20 18 18 23 38 40 47 49 51 57 63 53 54 54 57 62 66 64 74 74 81 87 85 80 83 93 80 94 85 68 60 63
99 100 91 71 35 21 21 34 46 38 44 49 56 43 28 20 17 18 31 40 47 53 58 58 66 67 51 54 58 58 63 63 70 80 80 92 87 86 82 89 96 89 88 77 80 65 67
98 97 100 99 89 65 26 21 35 52 68 84 55 42 37 22 18 24 40 41 45 51 55 44 51 53 48 56 56 63 64 67 76 80 82 88 93 96 82 82 76 80 94 95 75 63 69
99 96 96 98 100 97 88 40 51 89 98 66 61 45 41 24 19 35 49 52 57 61 77 52 55 59 49 54 60 63 67 73 81 87 82 86 97 74 76 82 85 87 97 94 72 63 66
96 96 97 95 96 100 100 97 66 95 86 66 56 46 42 26 25 43 55 66 61 60 77 56 60 61 61 63 67 62 62 75 85 86 90 89 73 76 83 90 92 80 96 90 85 72 66
93 94 95 99 91 93 98 98 100 83 52 37 48 49 44 26 39 54 61 68 59 69 83 59 61 66 66 72 72 67 69 74 89 90 90 87 76 81 88 93 83 97 73 79 83 94 94
80 84 92 96 100 95 95 97 95 100 86 59 40 53 47 29 47 59 62 61 61 71 46 43 66 71 73 73 71 70 76 84 87 80 86 74 78 86 94 80 85 88 81 93 94 98 99
89 88 69 82 91 95 99 87 96 99 96 86 37 51 51 38 36 59 65 60 71 69 39 49 70 76 80 80 77 82 85 87 92 96 83 85 79 87 76 79 82 77 87 88 96 97 96
98 92 90 57 87 88 96 99 92 95 94 86 90 49 55 45 57 66 65 74 74 65 42 44 66 81 74 73 76 83 87 96 89 84 84 77 77 84 84 90 76 94 92 95 92 96 86
98 96 92 90 55 92 97 96 100 96 98 98 91 89 57 55 56 77 68 59 59 41 50 50 66 74 75 68 72 70 75 83 81 76 92 92 89 76 80 85 76 88 91 98 96 93 75
96 97 95 91 85 60 72 87 90 100 100 99 93 98 72 56 57 82 77 88 61 46 41 66 68 74 71 70 72 72 77 77 69 83 80 90 90 62 83 78 77 85 98 79 98 94 94
98 96 94 86 86 82 51 59 80 91 100 100 99 100 89 58 74 82 89 81 60 45 55 55 39 56 67 64 72 76 72 64 67 75 64 69 92 67 62 68 74 76 71 97 92 95 93
91 98 97 86 80 75 69 47 54 70 100 100 100 99 82 59 98 94 95 95 73 51 55 60 61 60 72 66 72 71 65 58 56 62 72 66 90 73 67 69 67 75 89 97 97 99 96
96 84 81 77 68 70 81 64 53 50 86 100 100 99 80 96 98 84 88 90 62 63 59 64 60 66 71 75 75 78 75 63 49 60 72 69 83 90 77 57 57 60 73 80 97 92 95
77 81 80 72 69 67 64 65 72 78 88 99 99 98 100 100 95 91 86 88 81 73 71 74 74 71 69 73 72 76 68 51 51 65 66 65 84 96 61 54 54 63 60 67 79 98 86
82 83 87 86 84 83 78 80 78 83 99 99 100 100 100 100 88 73 89 95 88 71 61 63 64 69 75 79 78 73 73 56 56 62 58 59 83 84 79 62 72 80 77 72 74 94 76
93 84 77 77 74 80 85 88 85 84 95 99 99 99 95 98 96 82 80 78 88 68 72 63 71 74 79 84 81 85 77 71 53 55 70 73 94 89 85 81 81 83 82 78 88 74 77
79 77 68 69 66 62 64 76 81 90 90 100 95 98 100 97 86 88 76 94 90 75 79 78 78 75 81 73 64 65 65 61 63 57 75 76 90 83 82 70 77 78 68 69 69 66 64
80 75 76 80 82 79 85 87 81 90 96 100 95 100 99 93 86 94 86 73 90 64 60 58 67 69 87 73 56 48 49 53 55 62 70 72 84 88 87 77 74 58 48 45 46 48 53
93 99 97 99 93 90 74 87 92 93 88 100 99 98 100 100 96 93 74 70 76 78 55 60 62 71 54 52 49 49 57 63 68 72 66 78 79 87 95 78 64 37 45 45 44 44 42
60 66 87 93 94 93 82 88 91 99 100 100 100 95 98 100 96 88 81 72 69 72 80 52 59 53 46 47 56 48 40 46 67 69 78 77 81 90 94 94 67 38 31 34 34 39 34
93 91 90 83 53 43 46 53 58 78 100 100 100 98 90 95 98 87 81 86 94 93 80 60 58 54 52 64 57 49 46 32 37 74 86 82 78 83 89 91 79 40 33 32 35 44 36
90 91 91 83 57 39 34 35 41 49 86 100 100 100 95 96 94 91 92 82 61 71 81 75 70 65 56 69 59 58 52 40 41 42 88 92 90 94 92 84 82 56 50 34 36 36 31
88 88 90 88 93 56 57 93 60 50 91 99 99 99 95 96 91 84 70 55 55 55 78 73 66 70 77 68 63 64 58 48 41 39 70 75 90 94 93 96 78 41 29 30 31 28 32
91 89 89 88 89 92 92 92 69 89 99 100 100 100 100 94 98 96 63 54 52 47 44 63 48 68 62 71 74 67 58 60 48 47 51 48 56 61 69 63 45 40 37 36 35 34 33

GFSGBSN_850_rhum_177.txt.gz
RH
70 77 79 77 69 52 28 24 20 20 21 22 24 26 24 22 20 20 19 17 17 25 29 30 31 33 35 52 54 42 43 43 46 51 73 69 56 56 42 44 48 50 42 43 44 45 45
46 81 92 80 72 69 66 43 34 31 26 21 20 20 20 18 18 17 16 16 17 26 30 31 32 35 48 43 42 44 46 46 48 72 74 73 71 71 64 52 52 48 52 51 49 47 46
75 69 91 98 90 52 50 57 55 49 43 31 25 21 20 20 18 16 16 15 19 27 29 33 34 38 46 59 44 45 50 54 52 57 77 81 81 73 62 49 56 56 60 46 42 41 42
99 100 95 88 61 35 31 32 62 64 70 52 36 32 30 27 21 15 14 15 22 30 33 35 37 40 62 43 45 49 55 80 56 56 62 63 77 80 71 62 52 51 47 56 33 37 34
92 89 94 98 95 88 70 35 26 46 50 61 59 51 37 34 26 15 15 20 27 33 38 43 45 57 52 44 53 53 54 75 71 77 78 83 88 69 60 59 72 52 63 43 37 36 35
94 94 94 90 91 96 98 92 76 19 37 71 66 51 42 38 27 17 20 27 31 39 44 47 54 69 57 57 57 50 52 58 78 78 80 81 68 57 54 64 77 54 54 48 48 35 41
84 86 94 98 86 87 88 95 96 80 44 70 44 36 44 39 28 20 25 32 71 77 61 52 58 57 54 58 46 64 58 81 79 71 54 56 70 69 42 40 44 52 60 62 53 41 46
72 83 97 100 100 95 86 85 86 95 98 90 63 20 39 40 30 24 35 70 49 50 62 59 50 65 62 59 56 70 60 72 61 52 46 57 65 40 45 50 54 56 65 70 45 36 41
86 74 79 94 92 99 100 94 84 80 89 95 89 78 21 42 30 31 46 53 48 53 66 61 64 64 68 56 53 57 66 66 55 53 50 57 43 43 50 54 61 60 65 56 54 44 43
57 70 82 74 86 88 95 93 97 92 80 86 87 87 60 44 40 44 62 47 51 68 89 92 54 67 72 74 59 75 72 68 60 57 54 56 46 54 55 60 56 91 45 42 53 65 82
92 94 75 88 79 89 79 88 93 100 88 83 84 82 83 36 40 52 43 47 54 72 83 64 56 68 78 66 64 75 83 77 59 49 58 62 48 53 60 50 47 61 46 53 60 82 94
93 98 94 88 84 88 77 79 85 93 99 100 88 80 79 80 39 36 39 48 55 79 72 86 58 64 61 60 55 79 77 84 72 66 56 57 50 56 57 50 48 46 55 52 75 85 88
87 88 91 98 98 94 89 82 76 91 90 100 97 86 78 83 71 41 44 68 77 87 30 50 50 54 46 44 49 58 59 72 61 74 58 48 44 48 58 55 33 51 54 82 67 82 62
81 92 91 94 89 94 87 87 81 74 93 96 100 100 99 92 78 46 53 46 76 36 27 39 44 50 47 40 44 51 53 54 40 49 58 75 77 48 47 50 51 49 59 89 88 66 63
85 75 85 87 88 91 92 89 88 69 89 96 100 100 98 95 85 51 70 84 49 27 22 36 48 45 42 45 46 48 43 38 34 45 55 46 52 37 36 36 47 48 74 57 82 55 61
88 85 90 86 86 88 88 81 88 78 66 82 100 100 98 90 98 74 71 63 35 31 36 36 30 26 20 33 48 40 28 27 39 40 38 40 61 37 40 42 40 51 43 75 67 86 70
87 86 74 79 80 83 83 83 86 81 64 75 100 99 99 88 99 92 91 63 42 32 36 38 25 21 24 24 33 28 27 30 33 42 43 42 46 47 40 42 36 39 57 85 88 82 88
77 74 78 85 85 79 83 80 76 77 66 82 100 97 99 96 99 96 92 58 47 41 41 42 46 35 24 23 30 32 28 26 34 42 48 39 45 58 48 32 29 37 44 42 85 68 69
88 80 79 76 74 70 66 66 66 68 80 71 95 89 100 100 97 94 79 60 55 49 40 38 37 35 30 31 34 27 33 34 38 41 40 41 49 61 43 36 42 40 28 29 37 57 77
88 98 95 88 78 84 90 88 74 70 75 84 89 97 99 100 100 94 74 78 85 62 52 41 36 36 46 43 35 34 37 39 42 44 50 51 50 54 59 44 38 47 40 39 44 68 60
54 78 84 92 95 76 72 79 90 89 78 98 91 96 82 93 97 95 93 94 72 87 61 48 44 42 44 42 28 36 36 33 41 50 54 49 58 51 45 42 43 46 44 42 49 47 55
49 53 79 74 70 76 76 82 84 93 93 95 95 99 93 97 79 95 98 96 84 66 91 64 57 39 39 42 30 27 34 39 32 46 49 51 59 51 64 38 36 48 38 37 39 37 31
69 52 88 96 96 92 90 85 91 96 92 96 94 92 99 94 85 99 85 92 85 66 61 55 48 53 50 40 34 30 28 31 31 38 47 52 59 57 62 37 42 41 33 31 30 26 26
84 85 86 66 86 89 94 86 88 90 99 100 99 99 100 84 69 65 54 55 60 78 84 74 53 51 51 49 51 50 47 47 46 42 42 47 57 57 69 48 50 30 23 30 34 27 24
69 82 93 96 93 85 80 79 73 63 61 94 97 96 97 98 78 71 59 52 50 47 53 62 57 48 53 57 62 51 47 44 39 41 45 46 48 57 67 55 39 30 28 34 35 26 25
77 88 94 94 91 90 88 84 81 61 51 86 99 100 100 97 80 74 75 70 66 58 56 52 55 60 61 68 78 64 47 28 50 69 60 50 48 52 53 67 49 27 28 35 27 35 27
94 91 88 91 93 94 90 91 88 84 90 94 95 94 99 97 82 83 74 70 60 64 66 58 55 80 78 92 94 57 43 24 36 50 80 72 66 70 62 64 50 28 34 32 35 32 30
91 94 93 91 92 91 93 90 87 90 89 94 89 84 98 98 83 92 81 83 77 88 86 79 94 98 99 98 74 49 39 28 26 25 55 59 64 66 56 67 73 29 35 32 29 31 32
91 91 88 86 89 90 92 90 87 88 90 98 92 82 92 100 98 97 99 95 75 74 71 76 70 86 86 77 48 39 37 29 26 27 31 47 37 44 46 46 31 33 34 33 35 36 36